Regional Weather Roundup
Issued by NWS

Home | Current Version | Previous Version | Text Only | Print | Product List | Glossary On
Versions: 1 2 3 4 5 6 7 8 9 10 11 12 13 14 15 16 17 18 19 20 21 22 23 24 25 26 27 28 29 30 31 32 33 34 35 36 37 38 39 40 41 42 43 44 45 46 47 48 49 50
000
ASUS43 KTOP 240908
RWRKS

WEATHER ROUNDUP FOR KANSAS
NATIONAL WEATHER SERVICE GOODLAND KS
400 AM CDT SUN JUL 24 2016

NOTE:  "FAIR" INDICATES FEW OR NO CLOUDS BELOW 12,000 FEET WITH NO
SIGNIFICANT WEATHER AND/OR OBSTRUCTIONS TO VISIBILITY.

KSZ001>006-013>018-027>032-041>047-241000-
NORTHWEST KANSAS

CITY           SKY/WX    TMP DP  RH WIND       PRES   REMARKS
GOODLAND       CLOUDY    73  58  59 W6        30.05R
HAYS           CLOUDY    82  61  47 S13       29.87F
HILL CITY      PTCLDY    79  72  79 NW8       29.91R
RUSSELL        CLOUDY    85  63  47 SW13G25   29.88R THUNDER
$$

KSZ061>065-074>080-084>089-241000-
SOUTHWEST KANSAS

CITY           SKY/WX    TMP DP  RH WIND       PRES   REMARKS
DODGE CITY     CLOUDY    76  65  68 SW7       29.97S
ELKHART          N/A     75  61  62 E5          N/A
GARDEN CITY    CLOUDY    76  61  59 NW10      29.97R
GREAT BEND     CLOUDY    81  63  54 SW16      29.90S
LIBERAL        CLOUDY    79  61  53 NW7       30.02R
PRATT          CLOUDY    80  63  55 W6        29.94R
$$

KSZ066>073-081>083-090>101-241000-
SOUTHEAST KANSAS

CITY           SKY/WX    TMP DP  RH WIND       PRES   REMARKS
CHANUTE        PTCLDY    79  71  76 S8        29.89S
COFFEYVILLE    CLEAR     78  72  81 S5        29.90S
HUTCHINSON     MOCLDY    82  65  56 SW6       29.88F
MEDICINE LODGE   N/A     81  65  58 S5        29.90S
NEWTON         PTCLDY    81  68  64 S13       29.88F
PARSONS        CLEAR     79  72  79 S6        29.91S
WICHITA INTL   PTCLDY    78  68  71 S6        29.88F
WICHITA JABRA  CLEAR     82  68  62 S13       29.88F
WICHITA MCCONL PTCLDY    79  68  68 SW8       29.89F
WINFIELD       CLEAR     79  69  71 S8        29.90S
$$

KSZ007>012-019>026-033>040-048>060-102>105-241000-
NORTHEAST KANSAS

CITY           SKY/WX    TMP DP  RH WIND       PRES   REMARKS
CONCORDIA      PTCLDY    80  66  62 S9        29.85S
EMPORIA        PTCLDY    77  70  79 S9        29.87S
LAWRENCE       CLEAR     77  71  82 SE6       29.86S
MANHATTAN      LGT RAIN  82  70  66 SW3       29.87R
MARYSVILLE     CLOUDY    82  68  61 S8        29.86S
OLATHE IND     CLEAR     78  72  81 S8        29.89R
OLATHE EXE     CLEAR     78  71  79 S5        29.89R
SALINA         CLOUDY    87  65  47 SW17      29.84F
TOPEKA BILLARD CLOUDY    79  71  76 N3        29.86R
TOPEKA FORBES  CLOUDY    81  71  71 S7        29.86S
$$




USA.gov is the U.S. government's official web portal to all federal, state and local government web resources and services.